Flag for Czech Republic Weather past 2 weeks in Brno, Czech Republic

Now
39 °F

Passing clouds.


Feels Like: 35 °F
Forecast: 32 / 44 °F
Wind: 6 mph from West

Location: Brno / Turany

Current Time: Mar 3, 2015 at 8:27:12 PM

Latest Report: Mar 3, 2015 at 7:00 PM


Visibility: 19 mi

Pressure: 30.20 "Hg

Humidity: 56%

Dew point: 25 °F

Location of BrnoLocation

Historic Weather in Brno — Graph

°F

Brno temperature yesterday

Maximum temperature yesterday: 49 °F (at 3:00 PM)
Minimum temperature yesterday: 35 °F (at 2:00 AM)
Average temperature yesterday: 41 °F

Past Weeks' High & Low Weather Summary

 TemperatureHumidityPressure
High49 °F (Feb 21, 4:00 PM)98% (Feb 24, 8:00 AM)30.79 "Hg (Feb 24, 8:00 AM)
Low27 °F (Feb 17, 5:00 AM)28% (Mar 3, 3:00 PM)29.58 "Hg (Feb 23, 4:00 PM)
Average38 °F77%30.05 "Hg
* Reported Feb 16 8:00 PM — Mar 3 7:00 PM, Brno, Weather by CustomWeather, © 2015

Note: Actual official high and low records may vary slightly from our data, if they occured in-between our weather recording intervals... More about our weather records

Advertising

Brno weather history for previous 24 hours

 ConditionsComfort  
Time TempWeatherWind HumidityBarometerVisibility
7:00 PM
Tue, Mar 3
39 °FPassing clouds.6 mph56%30.20 "Hg19 mi
6:00 PM41 °FPassing clouds.5 mph46%30.19 "Hg25 mi
5:00 PM45 °FPassing clouds.7 mph36%30.17 "Hg25 mi
4:00 PM47 °FPassing clouds.8 mph33%30.16 "Hg25 mi
3:00 PM49 °FScattered clouds.10 mph28%30.15 "Hg25 mi
2:00 PM48 °FPartly sunny.9 mph31%30.15 "Hg22 mi
1:00 PM46 °FPassing clouds.10 mph31%30.16 "Hg22 mi
12:00 PM45 °FPassing clouds.13 mph35%30.16 "Hg25 mi
11:00 AM44 °FPassing clouds.13 mph42%30.15 "Hg25 mi
10:00 AM42 °FScattered clouds.10 mph47%30.14 "Hg22 mi
9:00 AM39 °FScattered clouds.12 mph53%30.14 "Hg25 mi
8:00 AM38 °FPassing clouds.8 mph55%30.11 "Hg25 mi
7:00 AM37 °FPartly sunny.7 mph63%30.09 "Hg22 mi
6:00 AM36 °FPassing clouds.6 mph64%30.07 "Hg19 mi
5:00 AM36 °FPassing clouds.7 mph64%30.05 "Hg19 mi
4:00 AM36 °FPassing clouds.6 mph68%30.01 "Hg19 mi
3:00 AM39 °FOvercast.10 mph65%29.97 "Hg19 mi
2:00 AM35 °FOvercast.3 mph88%29.96 "Hg12 mi
1:00 AM36 °FPassing clouds.5 mph85%29.93 "Hg12 mi
12:00 AM35 °FPassing clouds.1 mph81%29.91 "Hg12 mi
11:00 PM
Mon, Mar 2
35 °FPassing clouds.3 mph77%29.90 "Hg12 mi
9:00 PM38 °FPassing clouds.3 mph72%29.86 "Hg16 mi
8:00 PM39 °FPassing clouds.6 mph70%29.83 "Hg16 mi
Weather by CustomWeather, © 2015

See weather overviewHow to use our weather pages